Regional Weather Roundup
Issued by NWS

Home | Current Version | Previous Version | Text Only | Print | Product List | Glossary Off
Versions: 1 2 3 4 5 6 7 8 9 10 11 12 13 14 15 16 17 18 19 20 21 22 23 24 25 26 27 28 29 30 31 32 33 34 35 36 37 38 39 40 41 42 43 44 45 46 47 48 49 50

000
ASUS43 KLSX 291207
RWRMO

WEATHER SUMMARY FOR MISSOURI
NATIONAL WEATHER SERVICE SPRINGFIELD MO
600 AM CST THU JAN 29 2015

NOTE: "FAIR" INDICATES FEW OR NO CLOUDS BELOW 12,000 FEET WITH NO
       SIGNIFICANT WEATHER AND/OR OBSTRUCTIONS TO VISIBILITY.
       CURRENT SKY AND/OR WEATHER CONDITIONS ARE NOT AVAILABLE FOR
       CHILLICOTHE AND FARMINGTON.

MOZ001>031-035>038-043-044-053-054-291300-
...NORTHERN AND WESTERN MISSOURI...

CITY           SKY/WX    TMP DP  RH WIND       PRES   REMARKS
KANSAS CTY INT CLOUDY    38  31  76 NW18G32   30.14R WCI  28
6HR MIN TEMP:  38; 6HR MAX TEMP:  51;

KANSAS C DTWN  CLOUDY    41  31  67 NW17G28   30.14R
6HR MIN TEMP:  41; 6HR MAX TEMP:  55; 6HR PCP: TRACE;

LEE`S SUMMIT   CLOUDY    39  30  70 NW26G32   30.13R WCI  28
6HR MIN TEMP:  39; 6HR MAX TEMP:  55; 6HR PCP: TRACE;

ST JOSEPH      CLOUDY    38  29  70 N22       30.17R WCI  27
6HR MIN TEMP:  38; 6HR MAX TEMP:  48;

CHILLICOTHE      N/A     39  32  76 NW15G25   30.09R
6HR MIN TEMP:  39; 6HR MAX TEMP:  52;

KIRKSVILLE     FLURRIES  37  31  78 NW23G35   30.01R WCI  26
6HR MIN TEMP:  37; 6HR MAX TEMP:  51; 6HR PCP: TRACE;


$$
MOZ066>068-077>081-088>096-101>105-291300-
...SOUTHWEST MISSOURI...

CITY           SKY/WX    TMP DP  RH WIND       PRES   REMARKS
SPRINGFIELD    CLEAR     45  37  73 NW17G24   30.04R
6HR MIN TEMP:  45; 6HR MAX TEMP:  61;

JOPLIN         FAIR      47  35  63 NW15      30.11R
6HR MIN TEMP:  47; 6HR MAX TEMP:  61;


$$
MOZ032>034-039>042-045>050-055>058-069>072-291300-
...CENTRAL MISSOURI...

CITY           SKY/WX    TMP DP  RH WIND       PRES   REMARKS
COLUMBIA       CLOUDY    41  34  76 NW21G29   30.02R
6HR MIN TEMP:  41; 6HR MAX TEMP:  55;

JEFFERSON CITY CLOUDY    43  33  68 NW20G29   30.03R
6HR MIN TEMP:  43; 6HR MAX TEMP:  57;

ROLLA          CLOUDY    44  35  70 NW24G37   29.97R
6HR MIN TEMP:  44; 6HR MAX TEMP:  52;

SEDALIA        CLOUDY    43  34  70 NW17G25   30.07R
6HR MIN TEMP:  43; 6HR MAX TEMP:  58;

WHITEMAN AFB   CLOUDY    41  33  73 NW22G33   30.08R
WARRENSBURG    CLOUDY    39  32  75 NW18G28   30.11R WCI  30
OSAGE BEACH    CLOUDY    46  34  61 NW8G21    30.03R

$$
MOZ051-052-059>065-291300-
...EAST CENTRAL MISSOURI...

CITY           SKY/WX    TMP DP  RH WIND       PRES   REMARKS
ST LOUIS INTL  MOCLDY    46  36  68 NW18G33   29.89R
6HR MIN TEMP:  46; 6HR MAX TEMP:  54;

SPIRIT OF STL  CLOUDY    46  36  68 W21G35    29.92R
6HR MIN TEMP:  46; 6HR MAX TEMP:  54;

ST CHARLES     CLOUDY    45  37  73 W15G29    29.91R
6HR MIN TEMP:  39; 6HR MAX TEMP:  49;


$$
MOZ072>076-082>087-097>100-106>115-291300-
...SOUTH CENTRAL AND SOUTHEAST MISSOURI...

CITY           SKY/WX    TMP DP  RH WIND       PRES   REMARKS
CAPE GIRARDEAU NOT AVBL
FARMINGTON     CLEAR     52  37  58 W14G20    29.91R
6HR MIN TEMP:  45; 6HR MAX TEMP:  52;

POPLAR BLUFF   CLEAR     49  40  71 SW9       29.91R
6HR MIN TEMP:  47; 6HR MAX TEMP:  52;

WEST PLAINS    CLEAR     49  37  63 W9        29.97R
6HR MIN TEMP:  47; 6HR MAX TEMP:  52;


$$


USA.gov is the U.S. government's official web portal to all federal, state and local government web resources and services.